STARLINK-5571 (55380 NORAD) Tracking and Keplerian Element Data

This shows tracking and keplerian element data for the satellite.

Feedback or suggestion? Click here.




ElementValue
Catalog55380
NameSTARLINK-5571
Epoch Orbit1619
Epoch Day127.00001157
Epoch Year2023
RAAN165.9015
Inclination42.996
Eccentricity0.0001344
Argument of Perigee264.2275
Mean Anonmoly76.2521
Mean Motion15.06456343
Decay Rate-0.00864958
L11 55380U 23013BB 23127.00001157 -.00864958 00000+0 -62079-1 0 9995
L22 55380 42.9960 165.9015 0001344 264.2275 76.2521 15.06456343 16197



Live tracking and technical data element details for STARLINK-5571 (NORAD 55380). STARLINK-5571 can be tracked NOW for your location showing map with azimuth and elevation plus other details from your city location.







IsCatalogInMostPopularTable: catalog: 55380, numindb: 1
Update: records affected: 1



GetName: 55380 STARLINK-5571

Hit Count: updated at: Mon, 05 Jun 2023 19:31:50 GMT